User: anonymous   Login
Location: eljas
(40.1958°N, 6.8661°W)
Time: 21:58:14
(UTC+02:00)
Language:

Okean O Rocket - Orbit

View from above orbital plane
View from above orbital plane
View from above satellite
View from above satellite

Ground track
Ground track

The orbit data is extracted from the following two-line orbital elements,

1 25861U 99039B   16125.90557508 +.00000100 +00000-0 +21067-4 0  9997
2 25861 098.0497 089.9642 0014768 321.1594 097.1868 14.78307254905341
Epoch (UTC): 04 May 2016 21:44:01
Eccentricity: 0.0014768
inclination: 98.0497°
perigee height: 624 km
apogee height: 645 km
right ascension of ascending node: 89.9642°
argument of perigee: 321.1594°
revolutions per day: 14.78307254
mean anomaly at epoch: 97.1868°
orbit number at epoch: 90534

The dashed part of the orbit path shows where the satellite is in the earth's shadow,  

DLR